Temp
6 6 6 6 7 8 7 8 9 9 9 10 10 11 11 10 10 11 11 12 13 14 14 14 14 14 14 15 17 18 21 21 22 22 23 21 22 20 19 19 19 17 18 17 14
6 5 6 6 6 6 7 8 8 8 9 9 10 10 10 10 10 11 12 11 13 13 14 14 13 14 15 15 16 19 20 21 23 23 23 22 22 20 20 20 19 17 15 14 14
6 5 6 6 6 7 6 10 9 8 9 9 10 10 10 10 9 10 11 12 13 13 13 13 13 14 15 13 13 16 20 21 20 20 20 21 21 21 21 21 22 19 15 13 14
6 6 6 6 6 6 6 9 8 7 9 9 10 10 10 9 11 12 13 12 12 12 12 13 12 14 16 16 13 13 15 18 17 16 18 20 21 20 20 21 21 21 16 16 13
5 6 6 6 6 6 6 8 9 8 8 9 9 10 9 8 12 12 12 13 12 12 12 13 12 13 16 16 14 14 14 14 15 16 17 17 19 20 21 21 20 20 15 16 13
6 6 6 6 6 6 6 6 8 7 8 8 9 9 9 9 11 12 12 12 12 12 12 13 13 13 15 15 16 14 15 14 14 15 16 18 20 18 21 20 19 18 16 14 14
6 6 6 6 6 6 6 6 7 7 8 8 9 9 8 11 11 12 12 12 12 11 12 13 13 13 14 14 14 16 15 16 15 15 16 17 19 18 21 20 19 18 17 16 14
5 6 5 6 6 6 6 6 7 8 8 8 9 7 9 11 11 12 10 11 10 10 11 11 12 13 14 14 15 16 16 15 17 16 16 17 18 22 20 19 20 19 19 17 15
5 5 5 5 5 5 6 6 8 8 8 8 8 7 9 10 10 10 11 9 10 10 10 11 11 10 11 14 15 15 14 15 17 16 16 17 18 20 17 18 20 20 20 18 17
4 5 4 4 5 5 6 6 8 8 7 8 8 6 6 9 10 10 10 10 10 10 9 9 10 10 11 15 14 13 16 18 18 17 16 17 18 20 19 18 19 20 20 19 17
4 4 4 3 4 5 5 5 6 8 8 9 7 9 8 10 9 10 10 9 9 9 9 7 10 11 13 16 18 18 18 18 18 17 17 18 18 19 20 19 19 19 20 19 18
4 4 4 3 4 5 5 6 7 9 8 8 7 9 10 9 10 10 9 10 9 9 8 8 10 13 14 16 17 17 17 17 18 16 15 18 18 18 19 20 20 19 19 19 19
4 3 4 3 3 4 5 7 8 8 9 7 7 7 9 10 10 10 10 12 11 8 9 11 13 11 15 16 16 16 16 16 15 15 15 15 16 17 19 18 19 19 18 19 19
4 3 4 3 3 4 5 7 8 9 8 6 6 7 8 11 11 10 11 12 13 11 11 11 11 12 14 15 16 13 14 15 14 15 16 16 17 21 21 20 20 19 18 18 18
3 3 4 4 3 4 6 7 8 9 9 5 4 6 8 10 10 10 11 11 12 13 12 11 11 11 12 13 16 14 14 13 13 13 13 16 15 19 21 20 20 20 18 19 18
3 3 3 4 3 4 6 7 7 8 9 4 4 5 7 8 10 9 9 10 12 13 12 13 13 13 13 13 13 13 13 12 11 12 10 14 15 18 20 19 20 21 20 19 19
2 2 2 3 3 4 2 7 7 9 3 3 3 5 7 7 9 9 8 8 9 9 10 11 12 13 13 10 10 11 12 10 10 10 13 14 16 17 19 21 20 20 20 19 19
1 2 2 2 3 1 1 6 8 6 6 4 4 5 5 8 8 9 8 9 12 14 12 11 9 11 13 13 10 10 13 14 13 13 16 11 13 17 18 16 17 18 18 19 19
1 2 2 2 2 1 0 5 8 6 5 5 5 6 5 7 8 8 9 10 11 14 13 12 11 12 13 13 12 10 10 14 12 7 12 15 16 17 17 17 16 17 16 16 16
1 1 2 2 2 1 1 5 5 10 7 6 7 8 6 5 8 9 9 11 11 13 15 13 9 11 11 12 12 13 13 11 12 11 12 16 15 17 18 18 19 17 17 17 17
2 2 1 1 2 -0 4 4 4 9 9 10 10 7 7 7 9 9 9 11 13 12 14 14 11 9 9 10 9 10 11 13 14 13 13 15 18 18 18 17 18 19 17 17 16
2 2 1 1 2 1 4 3 4 9 10 13 12 11 9 9 9 10 9 13 13 13 12 12 11 8 9 10 12 12 11 13 13 11 14 13 15 17 17 17 17 17 16 16 16
1 1 1 1 2 3 2 3 4 9 10 12 11 12 12 11 10 12 11 13 13 12 13 12 10 8 7 10 11 11 12 13 14 12 11 12 15 19 17 17 16 16 16 16 17
2 2 -0 0 1 2 3 3 4 8 11 12 12 12 11 11 11 11 11 11 12 13 13 11 11 11 11 12 12 10 11 12 13 11 13 13 16 17 17 18 17 16 15 16 16
1 2 1 2 2 2 2 3 5 5 7 11 11 11 11 10 10 10 9 8 11 12 12 13 8 12 14 14 12 11 11 11 12 13 13 15 15 17 19 19 18 18 17 17 15
0 1 -0 1 1 3 2 3 4 4 7 10 11 11 12 10 11 10 10 10 10 11 12 12 8 12 8 11 13 12 12 12 12 13 13 14 15 17 18 18 17 17 17 16 16
0 1 1 1 2 3 3 2 4 7 8 11 12 12 12 12 12 11 11 11 11 10 11 10 8 7 9 9 9 8 10 12 12 13 14 13 15 16 17 16 16 16 16 15 15
Height
1432 1436 1438 1442 1444 1452 1457 1462 1466 1471 1477 1484 1489 1493 1498 1503 1505 1508 1509 1514 1515 1519 1523 1523 1527 1531 1533 1535 1534 1531 1530 1526 1526 1526 1524 1530 1532 1536 1537 1538 1541 1542 1544 1546 1548
1427 1430 1432 1435 1440 1445 1445 1454 1460 1465 1471 1478 1484 1490 1495 1500 1502 1502 1507 1508 1513 1516 1520 1520 1525 1529 1531 1531 1532 1530 1527 1523 1523 1523 1525 1529 1531 1536 1537 1538 1540 1542 1543 1544 1547
1420 1424 1427 1429 1432 1436 1439 1444 1454 1460 1466 1473 1478 1485 1491 1498 1502 1494 1502 1507 1510 1514 1518 1521 1525 1528 1528 1530 1531 1530 1524 1523 1527 1531 1530 1530 1532 1535 1536 1535 1534 1538 1541 1542 1546
1411 1414 1418 1422 1426 1429 1434 1438 1448 1454 1459 1467 1473 1479 1487 1494 1493 1489 1495 1503 1507 1513 1518 1520 1523 1525 1526 1526 1529 1531 1532 1528 1532 1533 1532 1531 1531 1533 1534 1533 1533 1535 1538 1538 1544
1405 1407 1412 1415 1418 1423 1427 1430 1440 1444 1451 1461 1468 1475 1481 1486 1485 1487 1488 1498 1504 1508 1512 1515 1518 1522 1522 1521 1527 1528 1531 1530 1531 1533 1532 1532 1532 1532 1531 1533 1534 1536 1537 1538 1542
1399 1400 1402 1405 1410 1418 1418 1425 1429 1436 1447 1456 1462 1470 1474 1478 1484 1486 1487 1493 1499 1504 1509 1513 1514 1519 1520 1521 1522 1524 1528 1530 1530 1532 1532 1532 1531 1533 1528 1531 1534 1535 1538 1539 1540
1392 1395 1396 1399 1405 1409 1413 1415 1422 1432 1439 1449 1457 1463 1469 1473 1481 1485 1485 1491 1498 1502 1507 1511 1512 1516 1516 1520 1522 1523 1527 1529 1530 1532 1533 1532 1531 1529 1528 1529 1532 1533 1536 1539 1540
1386 1389 1392 1393 1396 1400 1402 1404 1419 1422 1431 1444 1453 1457 1462 1471 1477 1480 1484 1492 1497 1500 1505 1508 1511 1513 1515 1516 1520 1522 1525 1529 1524 1528 1530 1530 1528 1521 1526 1529 1528 1532 1534 1537 1538
1380 1380 1383 1386 1387 1394 1399 1404 1410 1415 1428 1440 1448 1450 1453 1463 1471 1476 1482 1486 1492 1499 1503 1506 1509 1513 1514 1512 1519 1518 1526 1527 1522 1526 1529 1529 1528 1521 1524 1527 1526 1527 1530 1534 1537
1375 1375 1378 1379 1381 1387 1395 1399 1404 1412 1424 1435 1441 1450 1450 1453 1467 1474 1482 1485 1490 1497 1504 1508 1508 1511 1511 1504 1510 1521 1518 1511 1512 1522 1525 1525 1523 1519 1522 1525 1525 1524 1526 1530 1532
1370 1371 1371 1373 1375 1382 1390 1395 1400 1396 1407 1407 1415 1425 1439 1453 1466 1473 1478 1484 1489 1497 1497 1502 1504 1500 1499 1497 1495 1500 1504 1507 1510 1519 1521 1518 1518 1516 1517 1520 1522 1523 1522 1525 1528
1362 1364 1367 1369 1372 1378 1379 1379 1381 1383 1401 1415 1420 1431 1437 1441 1457 1468 1475 1479 1486 1490 1497 1502 1497 1494 1498 1494 1496 1499 1504 1508 1508 1519 1522 1514 1510 1511 1511 1510 1514 1517 1518 1521 1525
1358 1364 1365 1367 1367 1366 1370 1373 1379 1390 1405 1417 1415 1427 1433 1438 1446 1458 1466 1469 1476 1486 1488 1487 1484 1494 1492 1494 1498 1501 1504 1507 1514 1518 1520 1519 1507 1505 1502 1505 1508 1511 1514 1517 1519
1353 1352 1357 1361 1366 1362 1364 1369 1374 1389 1399 1405 1412 1425 1431 1435 1448 1456 1465 1467 1469 1476 1485 1487 1489 1490 1492 1494 1496 1511 1509 1509 1516 1522 1519 1515 1507 1481 1482 1489 1496 1499 1504 1509 1513
1345 1351 1357 1358 1360 1358 1360 1361 1373 1383 1385 1408 1413 1416 1422 1426 1428 1452 1462 1467 1466 1465 1477 1486 1486 1490 1497 1494 1496 1505 1511 1517 1524 1526 1529 1516 1524 1483 1478 1484 1484 1488 1493 1496 1499
1344 1348 1352 1354 1354 1357 1356 1355 1368 1372 1363 1397 1401 1411 1418 1422 1427 1447 1457 1464 1469 1472 1477 1478 1485 1488 1490 1497 1500 1508 1517 1525 1529 1532 1540 1516 1516 1487 1479 1479 1481 1482 1484 1489 1492
1340 1342 1345 1347 1351 1351 1349 1351 1352 1340 1382 1394 1394 1398 1408 1418 1422 1430 1445 1457 1460 1472 1477 1485 1486 1487 1489 1500 1507 1509 1514 1534 1540 1540 1520 1510 1505 1489 1473 1474 1478 1478 1480 1483 1487
1340 1343 1345 1351 1351 1350 1351 1340 1328 1341 1364 1378 1385 1402 1410 1413 1421 1424 1439 1451 1451 1450 1464 1473 1496 1485 1486 1485 1500 1511 1504 1505 1517 1513 1500 1520 1505 1482 1476 1477 1478 1478 1479 1479 1482
1337 1341 1345 1347 1351 1347 1355 1335 1320 1337 1353 1366 1390 1395 1407 1404 1409 1418 1429 1433 1440 1441 1448 1461 1475 1482 1484 1488 1492 1511 1514 1506 1513 1534 1520 1496 1486 1478 1474 1472 1475 1474 1478 1479 1481
1335 1341 1345 1348 1345 1342 1345 1333 1330 1327 1342 1355 1361 1375 1395 1404 1399 1410 1425 1427 1434 1441 1443 1450 1481 1484 1490 1492 1496 1492 1502 1515 1512 1521 1513 1482 1488 1479 1470 1467 1468 1470 1473 1476 1477
1336 1338 1338 1338 1343 1346 1338 1335 1334 1328 1331 1339 1349 1373 1384 1383 1381 1396 1404 1412 1424 1436 1442 1444 1458 1490 1491 1489 1493 1499 1498 1497 1493 1501 1500 1493 1473 1463 1467 1469 1467 1468 1471 1474 1475
1333 1333 1336 1339 1346 1346 1339 1336 1333 1327 1334 1329 1344 1350 1359 1374 1384 1390 1402 1398 1419 1432 1439 1444 1453 1479 1485 1486 1484 1487 1492 1491 1494 1503 1492 1495 1480 1464 1466 1466 1467 1468 1469 1471 1473
1328 1332 1332 1336 1346 1343 1338 1333 1332 1326 1329 1333 1340 1346 1354 1366 1383 1386 1396 1403 1414 1426 1425 1437 1455 1479 1496 1490 1484 1481 1484 1486 1485 1494 1500 1501 1469 1456 1461 1464 1466 1467 1468 1469 1471
1327 1328 1336 1341 1342 1337 1332 1331 1329 1328 1325 1328 1333 1340 1349 1365 1371 1384 1393 1406 1413 1421 1426 1430 1443 1448 1454 1451 1466 1482 1481 1483 1487 1495 1480 1480 1453 1458 1462 1463 1464 1467 1467 1468 1469
1330 1334 1336 1335 1333 1332 1335 1331 1326 1329 1330 1327 1333 1336 1336 1365 1381 1387 1399 1411 1416 1420 1425 1426 1445 1442 1441 1445 1455 1462 1469 1477 1481 1465 1474 1452 1457 1458 1456 1459 1461 1465 1467 1468 1468
1329 1332 1330 1331 1331 1336 1336 1329 1327 1331 1328 1324 1323 1332 1338 1354 1360 1371 1378 1390 1399 1418 1422 1424 1441 1442 1457 1452 1452 1458 1463 1468 1465 1459 1470 1455 1453 1455 1457 1458 1460 1463 1463 1463 1465
1326 1326 1329 1333 1335 1332 1329 1330 1330 1330 1330 1326 1327 1332 1339 1347 1356 1371 1380 1388 1396 1407 1415 1425 1438 1448 1453 1455 1460 1470 1450 1451 1456 1457 1455 1459 1433 1456 1453 1455 1459 1460 1461 1460 1460
Wind_Speed
25 31 31 31 28 43 58 45 34 38 40 40 36 32 31 26 25 29 27 25 28 14 19 18 17 16 12 10 6 3 8 11 14 9 5 7 9 8 4 7 6 7 1 4 22
26 29 32 33 32 37 49 54 40 37 37 40 37 34 31 28 27 31 32 25 21 23 15 22 18 15 10 8 4 11 12 15 5 4 3 7 10 10 6 10 8 9 7 14 25
29 27 33 34 35 37 39 53 52 39 39 41 39 37 34 28 20 27 34 28 25 23 17 17 15 14 11 7 2 2 12 6 3 0 1 6 11 8 11 10 10 15 16 17 26
31 30 28 35 36 34 36 47 54 42 41 42 39 39 35 31 14 20 37 34 26 24 18 19 17 15 11 12 10 3 6 1 3 1 2 6 6 10 14 2 1 8 19 21 28
31 31 31 33 36 35 34 46 51 40 43 45 42 40 37 34 31 5 26 34 30 29 22 23 22 16 13 12 13 5 5 4 4 2 4 2 9 13 15 10 4 10 18 22 25
31 31 33 30 38 37 33 42 52 39 44 47 45 44 41 30 33 13 21 36 34 31 24 23 17 19 12 10 12 14 10 9 3 2 2 4 6 3 14 13 8 15 17 20 23
29 30 32 30 38 38 34 40 47 48 48 48 47 48 36 31 26 24 24 34 32 28 27 20 13 18 13 9 9 11 13 9 7 4 3 3 7 11 6 13 13 15 16 18 21
26 29 27 28 37 37 34 37 37 39 48 50 48 45 16 29 18 24 26 25 24 23 24 21 20 15 8 11 12 10 6 8 11 7 3 4 11 8 9 10 16 16 16 17 21
22 26 25 31 31 36 31 40 51 39 49 50 46 27 12 26 25 25 31 28 28 24 21 16 19 7 6 10 9 7 7 13 9 13 4 8 7 4 3 10 13 16 17 18 19
24 19 15 29 31 33 36 36 37 45 49 47 37 15 16 34 29 29 29 27 24 24 14 12 8 4 6 12 10 8 8 14 16 10 10 11 17 14 6 6 12 15 17 19 20
20 16 22 22 25 28 32 33 37 38 56 28 26 17 25 33 30 29 31 26 22 17 7 6 5 12 17 21 16 16 14 11 9 8 7 17 18 20 26 14 11 13 17 19 21
19 16 17 18 18 35 18 42 42 33 40 31 37 25 36 47 26 34 34 21 16 10 10 5 7 14 14 13 11 14 15 14 8 5 5 11 18 16 21 26 23 19 17 20 19
16 18 16 16 18 27 22 37 50 46 17 12 33 32 34 46 35 38 40 20 20 12 13 10 13 7 16 14 13 12 14 11 7 4 8 9 16 21 22 27 28 24 19 19 19
16 11 12 11 14 24 29 35 58 50 9 5 16 16 30 29 22 40 34 17 12 17 9 3 10 13 15 17 16 8 2 3 8 4 6 7 9 12 19 23 20 31 30 26 22
18 15 13 10 8 21 15 52 55 35 13 14 8 22 31 28 39 33 30 11 18 17 10 6 14 17 14 13 17 6 9 8 5 2 5 8 5 7 4 14 19 25 33 33 31
24 18 16 12 21 22 17 59 44 11 10 8 12 12 16 17 32 30 14 7 16 18 6 9 18 14 10 13 8 17 13 10 4 2 5 13 11 11 13 13 14 22 29 33 32
20 18 17 14 20 27 18 59 9 12 11 9 7 12 21 13 17 31 20 11 11 12 11 9 13 4 19 13 8 1 11 3 2 4 6 3 12 16 9 11 9 14 22 25 30
16 15 15 19 19 23 14 10 14 11 11 7 13 20 9 23 20 24 21 16 14 13 13 13 7 13 19 8 13 12 6 5 7 6 3 2 9 4 9 9 17 15 12 12 25
17 14 13 18 13 19 4 5 10 18 13 14 21 20 6 12 12 18 25 25 15 20 12 14 6 12 17 6 20 7 5 1 2 2 1 6 8 10 12 14 9 15 10 10 8
18 13 9 12 13 7 0 6 6 15 21 27 16 11 9 9 19 20 23 22 21 18 13 13 7 10 6 10 7 12 13 4 4 4 6 6 7 8 7 6 8 8 14 11 12
17 7 9 13 9 3 3 3 4 23 29 23 27 13 14 20 24 30 33 19 23 21 11 18 7 9 8 11 14 5 13 6 4 4 3 4 5 3 3 2 3 3 4 4 5
12 3 18 16 3 2 3 4 7 23 25 10 20 21 29 28 17 14 22 14 33 24 16 4 6 11 20 3 9 15 14 15 6 6 8 3 9 7 5 4 3 3 2 2 3
10 3 22 14 4 4 2 3 10 24 24 23 17 12 23 21 12 15 19 14 35 24 21 11 7 9 7 7 7 22 17 19 11 1 6 6 8 12 8 3 6 6 8 0 1
6 3 4 4 4 3 2 4 5 22 14 18 17 21 22 18 11 15 15 11 34 30 17 10 7 10 12 7 14 14 21 17 18 6 12 14 22 7 6 4 3 2 3 5 11
4 3 4 5 5 6 2 3 8 10 3 12 11 21 26 13 11 10 13 7 18 26 8 8 6 9 7 10 17 17 19 21 22 28 15 21 22 18 13 10 12 13 17 15 18
5 4 3 1 7 8 3 4 7 7 13 17 19 27 22 21 14 24 17 20 19 18 15 11 5 9 2 4 12 11 16 22 28 29 22 22 23 11 16 16 16 18 20 19 20
5 6 2 3 6 7 5 1 9 13 7 7 19 25 21 20 13 22 21 16 15 18 18 12 5 4 4 6 6 1 23 23 25 25 25 22 31 8 10 9 12 17 20 22 18
Wind_Direction
241 237 238 240 243 240 239 242 228 224 230 228 224 226 220 216 213 218 218 219 221 221 216 213 211 204 183 218 215 205 235 228 230 236 232 161 189 182 172 139 174 172 146 134 176
241 237 237 236 230 237 239 242 242 236 225 224 220 221 214 209 209 218 221 220 220 221 216 205 195 183 183 189 191 217 227 231 248 251 247 182 213 183 188 174 181 166 128 157 171
242 242 234 237 232 234 239 238 245 227 224 220 218 214 208 200 203 224 217 218 219 220 218 203 194 187 199 197 216 238 235 210 123 201 256 195 209 190 228 206 202 191 167 171 174
244 247 235 237 233 233 239 228 235 226 219 214 210 206 199 188 207 231 220 209 208 201 191 189 184 184 195 188 182 138 255 189 138 174 240 191 211 207 226 37 223 188 181 176 181
242 244 237 236 235 238 235 224 236 234 211 209 207 202 187 190 204 255 201 204 205 195 191 187 182 193 196 189 171 198 181 157 124 87 202 223 224 224 227 226 181 161 176 183 184
239 241 240 242 228 233 229 220 229 237 207 206 201 197 183 199 199 225 199 190 197 194 196 194 194 181 197 184 191 190 180 205 192 347 145 229 223 212 237 202 181 173 184 187 192
233 238 235 237 222 226 228 219 224 242 211 201 197 188 183 193 193 214 191 187 192 190 188 191 193 176 175 141 146 164 170 185 190 203 194 194 219 225 222 189 194 191 194 196 196
234 234 229 237 221 231 225 214 232 228 196 197 196 177 182 193 189 193 174 170 177 182 182 190 183 176 189 148 158 161 203 185 186 192 228 162 253 208 206 204 208 207 203 201 203
223 229 230 232 227 222 213 212 224 204 191 192 192 175 158 191 183 178 171 170 175 179 183 176 170 159 153 165 153 202 182 208 175 194 177 217 240 176 179 229 225 213 210 208 211
222 232 226 227 225 221 220 214 218 193 191 187 191 160 172 185 176 174 175 169 165 182 168 182 162 180 201 194 182 149 200 202 207 181 204 206 235 240 214 223 237 236 217 220 214
216 229 255 254 222 208 218 205 204 178 179 179 170 173 170 167 160 176 170 162 159 169 172 184 173 200 186 197 175 179 193 202 216 141 197 222 237 242 242 221 236 245 238 227 227
214 222 255 247 231 214 211 206 219 177 167 191 182 170 168 159 160 169 167 161 159 176 136 146 205 184 198 206 180 188 199 224 182 166 225 245 247 243 244 241 245 244 241 237 234
214 213 223 244 264 232 228 206 187 171 164 182 182 179 167 164 167 170 173 177 165 147 187 193 165 218 190 190 178 193 199 199 192 198 248 288 271 250 240 240 240 237 242 244 239
209 219 224 234 263 234 227 207 178 169 154 184 160 184 180 173 167 169 182 170 185 169 176 215 161 172 177 184 182 171 201 111 128 182 250 176 278 248 226 225 222 224 226 234 238
220 216 230 248 236 225 214 172 175 177 185 148 143 173 176 186 144 176 174 195 181 167 156 155 168 166 189 169 181 116 112 97 98 105 14 211 252 250 304 227 226 221 223 224 220
224 225 227 233 249 229 229 167 171 180 193 152 146 172 168 177 157 151 163 161 176 150 69 127 170 172 171 144 122 128 112 73 59 23 247 233 218 263 242 237 243 241 231 228 217
218 218 225 214 244 226 234 166 192 194 150 161 158 152 161 169 152 157 162 167 156 153 154 140 166 146 145 110 125 152 144 108 189 197 235 21 222 251 268 280 252 252 240 229 226
196 194 212 207 240 233 271 207 205 124 157 138 146 148 160 170 167 160 148 165 191 205 149 163 191 180 177 175 157 177 198 177 207 210 240 87 233 233 272 286 267 249 264 258 228
179 187 197 217 228 214 182 235 174 142 142 136 141 156 142 177 153 151 176 185 179 194 170 184 141 165 182 140 147 171 194 80 83 69 293 215 252 251 246 259 260 245 250 245 244
171 178 200 197 203 219 223 284 174 162 136 143 148 161 147 189 140 165 174 182 174 200 181 171 122 181 155 139 193 180 149 147 217 207 240 235 249 250 259 273 231 233 241 267 268
168 166 187 183 186 141 232 254 240 163 148 162 154 148 167 170 163 170 182 170 183 182 186 165 124 153 150 199 176 179 183 213 191 232 243 284 250 79 275 330 301 187 177 293 292
161 151 167 156 114 240 239 177 220 166 174 175 168 159 168 170 162 162 180 159 174 165 171 123 112 151 185 112 215 206 185 187 192 193 234 324 256 146 143 156 170 138 137 289 343
129 109 161 147 203 225 219 212 197 169 174 158 160 172 163 166 150 179 167 173 165 179 169 159 127 121 152 264 210 210 206 208 227 347 200 195 262 183 207 185 219 224 311 47 43
147 123 109 224 224 239 231 170 163 198 166 165 161 142 147 166 114 179 146 164 173 182 156 120 155 168 186 183 155 195 208 208 208 208 209 217 242 189 187 202 159 295 303 297 307
166 166 179 171 208 195 349 168 175 179 323 159 151 158 149 141 138 143 131 142 172 180 149 164 155 198 191 175 176 195 200 194 207 226 211 234 240 236 233 251 275 291 291 279 283
155 172 120 56 130 204 186 235 178 153 171 180 164 165 160 163 179 177 153 159 169 185 177 178 166 173 92 142 182 194 193 201 212 225 234 252 267 246 258 263 261 273 282 285 285
197 163 165 149 173 174 192 181 175 199 239 185 171 159 170 180 108 147 146 133 147 172 176 164 118 124 174 146 112 354 212 205 217 224 223 237 243 231 244 255 254 269 279 284 287